« Back
NWS Peachtree City, Ga » Text Product » GA Regional Weather Roundup


Printer-friendly Version
Current Version              Previous Versions:   1  2  3  4  5  6  7  8  9  

Regional Weather Roundup

196
ASUS42 KFFC 221203
RWRGA
WEATHER ROUNDUP FOR GEORGIA
NATIONAL WEATHER SERVICE PEACHTREE CITY GA
800 AM EDT FRI AUG 22 2014

NOTE: "FAIR" INDICATES FEW OR NO CLOUDS BELOW 12,000 FEET WITH NO
SIGNIFICANT WEATHER AND/OR OBSTRUCTIONS TO VISIBILITY.

* = USE WITH CAUTION. THE STATIONS MARKED WITH AN ASTERISK MAY NOT
REPORT WEATHER SUCH AS PRECIPITATION, FOG, OR THUNDER AND ARE NOT
QUALITY CONTROLLED BY NWS.

THE REMARK "TC" DENOTES TEMPERATURE READING IN DEGREES CELSIUS.

GAZ001>058-221300-
NORTH GEORGIA

CITY           SKY/WX    TMP DP  RH WIND       PRES   REMARKS
ATLANTA        MOSUNNY   75  71  87 NW6       30.11R
6HR MIN TEMP:  74; 6HR MAX TEMP:  76;

ATHENS         SUNNY     73  71  93 CALM      30.09R
6HR MIN TEMP:  71; 6HR MAX TEMP:  77;

CHAMBLEE       SUNNY     73  70  90 S3        30.12R FOG
6HR MIN TEMP:  70; 6HR MAX TEMP:  74;

PEACHTREE CITY SUNNY     70  69  97 CALM      30.12R FOG
6HR MIN TEMP:  69; 6HR MAX TEMP:  71;

ROME           PTCLDY    70  70 100 CALM      30.10R FOG
6HR MIN TEMP:  69; 6HR MAX TEMP:  73;

WEST ATLANTA   SUNNY     73  70  90 CALM      30.11R
6HR MIN TEMP:  70; 6HR MAX TEMP:  74;

GAINESVILLE    SUNNY     74  70  87 NW3       30.13S
6HR MIN TEMP:  72; 6HR MAX TEMP:  76;

CARTERSVILLE   SUNNY     70  69  97 CALM      30.11R
6HR MIN TEMP:  68; 6HR MAX TEMP:  72;



CITY           SKY/WX    TMP DP  RH WIND       PRES   REMARKS
DALTON*        PTSUNNY   70  70 100 CALM      30.12R FOG
LAWRENCEVILLE* SUNNY     73  68  83 CALM      30.11R
MARIETTA       MOSUNNY   73  72  96 CALM      30.12R
KENNESAW*      MOSUNNY   72  70  94 CALM      30.12R
$$

GAZ059>098-102>109-221300-
CENTRAL GEORGIA

CITY           SKY/WX    TMP DP  RH WIND       PRES   REMARKS
AUGUSTA-BUSH   SUNNY     74  70  87 CALM      30.05R
6HR MIN TEMP:  70; 6HR MAX TEMP:  74;

AUGUSTA-DANIEL SUNNY     79  70  74 NW6       30.07R
6HR MIN TEMP:  77; 6HR MAX TEMP:  84;

COLUMBUS       CLEAR     74  72  93 CALM      30.09R
6HR MIN TEMP:  73; 6HR MAX TEMP:  77;

MACON          SUNNY     71  71 100 W3        30.08R
6HR MIN TEMP:  69; 6HR MAX TEMP:  74;

ROBINS AFB     SUNNY     73  71  93 CALM      30.07R


CITY           SKY/WX    TMP DP  RH WIND       PRES   REMARKS
LAGRANGE*      PTCLDY    74  74  98 CALM      30.11R
SYLVANIA*      SUNNY     75  74  98 CALM      30.05R
MILLEDGEVILLE* SUNNY     73  73 100 CALM      30.08R
$$

GAZ099>101-110>166-221300-
SOUTH GEORGIA

CITY           SKY/WX    TMP DP  RH WIND       PRES   REMARKS
SAVANNAH       MOSUNNY   77  72  84 CALM      30.04R
6HR MIN TEMP:  75; 6HR MAX TEMP:  81;

VALDOSTA       SUNNY     73  69  87 CALM      30.08R
6HR MIN TEMP:  70; 6HR MAX TEMP:  74;

ALMA           SUNNY     74  71  91 CALM      30.06R
6HR MIN TEMP:  72; 6HR MAX TEMP:  76;

ST SIMONS      SUNNY     77  72  84 W7        30.05R
6HR MIN TEMP:  76; 6HR MAX TEMP:  80;

FT STEWART     SUNNY     74  71  90 CALM      30.04R
ALBANY         SUNNY     72  71  97 CALM      30.10R
HUNTER AFB     SUNNY     77  74  88 W2        30.02R
MOODY AFB      SUNNY     74  71  88 W3        30.08R
BRUNSWICK      SUNNY     77  72  83 W5        30.06S


CITY           SKY/WX    TMP DP  RH WIND       PRES   REMARKS
BAINBRIDGE*    CLEAR     77  73  88 CALM      30.09R
MOULTRIE*      SUNNY     73  72  94 CALM      30.09S
VIDALIA*         N/A     77  73  88 CALM      30.07R
WAYCROSS*      SUNNY     78  75  91 CALM      30.07S
DOUGLAS*       SUNNY     73  72  94 CALM      30.09R
$$



USA.gov is the U.S. government's official web portal to all federal, state and local government web resources and services.